When you browse on this site, cookies collect data to enhance your experience and personalize the content and advertising you see.
Visit our Privacy Policy to learn more. By continuing to use the site, you agree to this use of cookies and data.
  • In Österreich
  • Länderverzeichnis
  • Für 7 Tage
  • Wassertemperatur
  • Wetterkarte
  • News
  • Widgets
  • user-avatar
    Anmelden

    Stündliche Wetter Miranda

    Heute, 17 Januar, Freitag

    Zeit Temperatur Niederschläge Wind Luftdruck Luftfeuchtigkeit
    00:00 +23°C° 0 mm 1 m/S 667 mmHg 80%
    01:00 +23°C° 0 mm 1 m/S 666 mmHg 82%
    02:00 +23°C° 0.1 mm 1 m/S 666 mmHg 82%
    03:00 +23°C° 0.1 mm 1 m/S 666 mmHg 82%
    04:00 +23°C° 0.1 mm 1 m/S 665 mmHg 82%
    05:00 +23°C° 0.1 mm 1 m/S 666 mmHg 83%
    06:00 +23°C° 0.1 mm 1 m/S 666 mmHg 83%
    07:00 +24°C° 0 mm 1 m/S 667 mmHg 82%
    08:00 +25°C° 0 mm 1 m/S 668 mmHg 76%
    09:00 +27°C° 0 mm 1 m/S 668 mmHg 69%
    10:00 +29°C° 0 mm 1 m/S 669 mmHg 62%
    11:00 +30°C° 0.1 mm 1 m/S 668 mmHg 58%
    12:00 +31°C° 0.1 mm 1 m/S 668 mmHg 53%
    13:00 +32°C° 0.1 mm 1 m/S 667 mmHg 49%
    14:00 +32°C° 0.1 mm 1 m/S 667 mmHg 51%
    15:00 +32°C° 0.1 mm 1 m/S 666 mmHg 53%
    16:00 +32°C° 0.1 mm 1 m/S 666 mmHg 55%
    17:00 +30°C° 0.1 mm 1 m/S 666 mmHg 63%
    18:00 +28°C° 0.1 mm 1 m/S 666 mmHg 70%
    19:00 +26°C° 0.1 mm 2 m/S 666 mmHg 78%
    20:00 +25°C° 0 mm 2 m/S 667 mmHg 78%
    21:00 +25°C° 0 mm 2 m/S 667 mmHg 78%
    22:00 +24°C° 0 mm 2 m/S 668 mmHg 78%
    23:00 +24°C° 0 mm 1 m/S 667 mmHg 78%

    Morgen, 18 Januar, Samstag

    Zeit Temperatur Niederschläge Wind Luftdruck Luftfeuchtigkeit
    00:00 +24°C° 0 mm 1 m/S 667 mmHg 78%
    01:00 +23°C° 0 mm 1 m/S 666 mmHg 79%
    02:00 +23°C° 0 mm 1 m/S 666 mmHg 80%
    03:00 +23°C° 0 mm 1 m/S 666 mmHg 80%
    04:00 +23°C° 0 mm 1 m/S 665 mmHg 81%
    05:00 +23°C° 0 mm 1 m/S 666 mmHg 81%
    06:00 +23°C° 0 mm 1 m/S 666 mmHg 80%
    07:00 +23°C° 0 mm 1 m/S 666 mmHg 80%
    08:00 +25°C° 0 mm 1 m/S 667 mmHg 74%
    09:00 +27°C° 0 mm 1 m/S 668 mmHg 69%
    10:00 +29°C° 0 mm 1 m/S 669 mmHg 63%
    11:00 +30°C° 0.1 mm 1 m/S 669 mmHg 58%
    12:00 +31°C° 0.1 mm 1 m/S 668 mmHg 54%
    13:00 +33°C° 0.1 mm 1 m/S 668 mmHg 49%
    14:00 +32°C° 0.1 mm 1 m/S 667 mmHg 50%
    15:00 +32°C° 0.1 mm 2 m/S 666 mmHg 52%
    16:00 +32°C° 0.1 mm 2 m/S 666 mmHg 53%
    17:00 +30°C° 0.4 mm 2 m/S 666 mmHg 64%
    18:00 +27°C° 0.4 mm 1 m/S 665 mmHg 75%
    19:00 +25°C° 0.4 mm 1 m/S 665 mmHg 86%
    20:00 +24°C° 0.4 mm 1 m/S 666 mmHg 86%
    21:00 +24°C° 0.4 mm 1 m/S 666 mmHg 85%
    22:00 +23°C° 0.4 mm 2 m/S 667 mmHg 85%
    23:00 +23°C° 0.1 mm 1 m/S 667 mmHg 85%

    übermorgen, 19 Januar, Sonntag

    Zeit Temperatur Niederschläge Wind Luftdruck Luftfeuchtigkeit
    00:00 +23°C° 0.1 mm 1 m/S 666 mmHg 85%
    01:00 +23°C° 0.1 mm 1 m/S 666 mmHg 85%
    02:00 +23°C° 0 mm 1 m/S 666 mmHg 85%
    03:00 +22°C° 0 mm 1 m/S 666 mmHg 85%
    04:00 +22°C° 0 mm 1 m/S 665 mmHg 86%
    05:00 +23°C° 0 mm 1 m/S 666 mmHg 85%
    06:00 +23°C° 0 mm 1 m/S 666 mmHg 85%
    07:00 +23°C° 0 mm 1 m/S 666 mmHg 85%
    08:00 +25°C° 0 mm 1 m/S 667 mmHg 79%
    09:00 +27°C° 0 mm 1 m/S 668 mmHg 74%
    10:00 +29°C° 0 mm 1 m/S 669 mmHg 68%
    11:00 +30°C° 0.2 mm 1 m/S 668 mmHg 65%
    12:00 +31°C° 0.2 mm 1 m/S 668 mmHg 61%
    13:00 +32°C° 0.2 mm 1 m/S 667 mmHg 57%
    14:00 +32°C° 0.5 mm 1 m/S 666 mmHg 61%
    15:00 +31°C° 0.5 mm 1 m/S 666 mmHg 64%
    16:00 +30°C° 0.5 mm 1 m/S 665 mmHg 67%
    17:00 +28°C° 1.1 mm 1 m/S 665 mmHg 75%
    18:00 +27°C° 1.1 mm 1 m/S 665 mmHg 84%
    19:00 +25°C° 1.1 mm 1 m/S 666 mmHg 92%
    20:00 +24°C° 1.2 mm 1 m/S 666 mmHg 92%
    21:00 +24°C° 1.2 mm 1 m/S 667 mmHg 92%
    22:00 +24°C° 1.2 mm 1 m/S 667 mmHg 92%
    23:00 +23°C° 1.1 mm 1 m/S 667 mmHg 92%

    20 Januar, Montag

    Zeit Temperatur Niederschläge Wind Luftdruck Luftfeuchtigkeit
    00:00 +23°C° 1.1 mm 1 m/S 667 mmHg 92%
    01:00 +22°C° 1.1 mm 1 m/S 666 mmHg 92%
    02:00 +22°C° 0.6 mm 1 m/S 666 mmHg 92%
    03:00 +20°C° 0.6 mm 0 m/S 666 mmHg 92%
    04:00 +20°C° 0.6 mm 0 m/S 665 mmHg 93%
    05:00 +20°C° 0.6 mm 0 m/S 666 mmHg 92%
    06:00 +21°C° 0.6 mm 0 m/S 666 mmHg 92%
    07:00 +21°C° 0.6 mm 0 m/S 667 mmHg 91%
    08:00 +22°C° 0.2 mm 0 m/S 668 mmHg 88%
    09:00 +24°C° 0.2 mm 0 m/S 668 mmHg 85%
    10:00 +27°C° 0.2 mm 1 m/S 669 mmHg 82%
    11:00 +25°C° 0.9 mm 0 m/S 668 mmHg 83%
    12:00 +25°C° 0.9 mm 0 m/S 667 mmHg 84%
    13:00 +25°C° 0.9 mm 0 m/S 667 mmHg 84%
    14:00 +24°C° 1 mm 0 m/S 666 mmHg 86%
    15:00 +24°C° 1 mm 0 m/S 666 mmHg 87%
    16:00 +24°C° 1 mm 0 m/S 666 mmHg 88%
    17:00 +23°C° 0.8 mm 0 m/S 666 mmHg 89%
    18:00 +22°C° 0.8 mm 0 m/S 666 mmHg 90%
    19:00 +22°C° 0.8 mm 0 m/S 666 mmHg 92%
    20:00 +22°C° 0.6 mm 0 m/S 667 mmHg 92%
    21:00 +21°C° 0.6 mm 0 m/S 667 mmHg 92%
    22:00 +21°C° 0.6 mm 0 m/S 668 mmHg 93%
    23:00 +21°C° 0.7 mm 0 m/S 667 mmHg 94%

    21 Januar, Dienstag

    Zeit Temperatur Niederschläge Wind Luftdruck Luftfeuchtigkeit
    00:00 +21°C° 0.7 mm 0 m/S 667 mmHg 95%
    01:00 +21°C° 0.7 mm 0 m/S 667 mmHg 96%
    02:00 +21°C° 1.3 mm 0 m/S 667 mmHg 96%
    03:00 +21°C° 1.3 mm 0 m/S 666 mmHg 96%
    04:00 +20°C° 1.3 mm 0 m/S 666 mmHg 96%
    05:00 +20°C° 1.4 mm 0 m/S 667 mmHg 97%
    06:00 +21°C° 1.4 mm 0 m/S 667 mmHg 97%
    07:00 +21°C° 1.4 mm 0 m/S 667 mmHg 97%
    08:00 +21°C° 0.5 mm 0 m/S 668 mmHg 96%
    09:00 +21°C° 0.5 mm 0 m/S 668 mmHg 96%
    10:00 +24°C° 0.5 mm 1 m/S 668 mmHg 95%
    11:00 +21°C° 1.8 mm 0 m/S 668 mmHg 96%
    12:00 +21°C° 1.8 mm 0 m/S 668 mmHg 96%
    13:00 +21°C° 1.8 mm 0 m/S 667 mmHg 96%
    14:00 +23°C° 1.2 mm 1 m/S 667 mmHg 96%
    15:00 +23°C° 1.2 mm 1 m/S 666 mmHg 96%
    16:00 +23°C° 1.2 mm 1 m/S 666 mmHg 95%
    17:00 +22°C° 0.8 mm 1 m/S 666 mmHg 96%
    18:00 +20°C° 0.8 mm 0 m/S 666 mmHg 97%
    19:00 +19°C° 0.8 mm 0 m/S 667 mmHg 97%
    20:00 +19°C° 0.7 mm 0 m/S 667 mmHg 97%
    21:00 +19°C° 0.7 mm 0 m/S 668 mmHg 96%
    22:00 +19°C° 0.7 mm 0 m/S 668 mmHg 96%
    23:00 +19°C° 0.4 mm 0 m/S 668 mmHg 96%

    22 Januar, Mittwoch

    Zeit Temperatur Niederschläge Wind Luftdruck Luftfeuchtigkeit
    00:00 +19°C° 0.4 mm 0 m/S 668 mmHg 96%
    01:00 +19°C° 0.4 mm 0 m/S 667 mmHg 96%
    02:00 +19°C° 0.2 mm 0 m/S 667 mmHg 96%
    03:00 +19°C° 0.2 mm 0 m/S 667 mmHg 96%
    04:00 +19°C° 0.2 mm 0 m/S 667 mmHg 95%
    05:00 +19°C° 0.4 mm 0 m/S 667 mmHg 95%
    06:00 +19°C° 0.4 mm 0 m/S 667 mmHg 95%
    07:00 +19°C° 0.4 mm 0 m/S 668 mmHg 94%
    08:00 +20°C° 0.2 mm 0 m/S 668 mmHg 91%
    09:00 +24°C° 0.2 mm 1 m/S 669 mmHg 87%
    10:00 +25°C° 0.2 mm 1 m/S 669 mmHg 83%
    11:00 +26°C° 0.3 mm 1 m/S 669 mmHg 82%
    12:00 +26°C° 0.3 mm 1 m/S 668 mmHg 81%
    13:00 +27°C° 0.3 mm 1 m/S 668 mmHg 79%
    14:00 +27°C° 0.3 mm 1 m/S 667 mmHg 79%
    15:00 +27°C° 0.3 mm 1 m/S 666 mmHg 78%
    16:00 +27°C° 0.3 mm 1 m/S 666 mmHg 77%
    17:00 +26°C° 0.1 mm 1 m/S 666 mmHg 81%
    18:00 +24°C° 0.1 mm 1 m/S 666 mmHg 86%
    19:00 +23°C° 0.1 mm 1 m/S 666 mmHg 91%
    20:00 +21°C° 0 mm 0 m/S 667 mmHg 89%
    21:00 +21°C° 0 mm 0 m/S 667 mmHg 88%
    22:00 +20°C° 0 mm 0 m/S 668 mmHg 86%
    23:00 +20°C° 0 mm 0 m/S 667 mmHg 88%
    Mehr zeigen